Preview of NWS' New Version of Forecast
This preview is not operational and should not be used for support decisions.

Regional Weather Roundup (RWR)

Issued by Gray - Portland, ME (GYX)

                            
885 
ASUS41 KGYX 211710
RWRGYX
WEATHER ROUNDUP FOR MAINE AND NEW HAMPSHIRE
NATIONAL WEATHER SERVICE GRAY ME
100 PM EDT SAT APR 21 2018

MEZ002-005-006-010-012-015-018-020-021-024-026-027-029-211800-
MAINE
  
CITY           SKY/WX    TMP DP  RH WIND       PRES   REMARKS
PORTLAND       FAIR      53  25  33 NW12G20   30.21F                  
SANFORD        FAIR      52  23  32 VRB6G20   30.21F                  
BAR HARBOR     CLOUDY    46  25  43 NW10G20   30.16S                  
WISCASSET      FAIR      50  22  33 NW8       30.20F                  
ROCKLAND       CLOUDY    50  26  39 W18G25    30.17F                  
FRYEBURG       FAIR      52  23  32 NW15G25   30.21F                  
LEWISTONAUBURN PTSUNNY   49  23  36 W14G22    30.20F                  
AUGUSTA        CLOUDY    48  22  35 W16G23    30.19F                  
WATERVILLE     CLOUDY    47  24  40 NW13G21   30.16F                  
BANGOR         CLOUDY    47  24  40 NW17      30.16F                  
GREENVILLE       N/A     40  23  50 NW14      30.11S                  
MILLINOCKET    CLOUDY    46  22  38 NW10G23   30.13F                  
HOULTON        FAIR      44  20  38 N15       30.07F                  
PRESQUE ISLE   FAIR      43  18  36 NW13G23   30.10S                  
FRENCHVILLE    FAIR      41  17  38 N15G25    30.08S                  
CARIBOU        FAIR      41  19  41 N17G23    30.08S                  
$$

NHZ002-005-008-009-011-012-014-211800-
NEW HAMPSHIRE
  
CITY           SKY/WX    TMP DP  RH WIND       PRES   REMARKS
PORTSMOUTH     MOSUNNY   54  21  27 NW14G20   30.20F                  
ROCHESTER      FAIR      54  23  30 NW16G31   30.21F                  
NASHUA         FAIR      54  23  30 NW9G18    30.24F                  
MANCHESTER     FAIR      57  18  21 N20G26    30.22F                  
CONCORD        FAIR      54  21  27 W20G26    30.23F                  
LACONIA        FAIR      51  21  30 NW13G18   30.22F                  
PLYMOUTH       FAIR      51  23  33 W14G22    30.24S                  
BERLIN         PTSUNNY   48  24  39 NW10G18   30.21F                  
WHITEFIELD     PTSUNNY   47  21  35 W9        30.23S                  
JAFFREY        FAIR      51  20  29 W13G23    30.24F                  
KEENE          FAIR      54  20  26 N14       30.26F                  
LEBANON        FAIR      54  21  27 NW14G21   30.26F                  
MT WASHINGTON  BLWGSNOW  19  19 100 NW51G59     N/A  VSB 3/16WCI  -4  
$$

VTZ005-007-008-211800-
VERMONT
  
CITY           SKY/WX    TMP DP  RH WIND       PRES   REMARKS
ST JOHNSBURY     N/A     49  22  34 MISG      30.24F                  
MONTPELIER     FAIR      46  23  40 NW17G25   30.30F                  
BURLINGTON     FAIR      51  21  30 N12G22    30.30F                  
$$

MAZ007-012-024-CTZ003-RIZ002-NYZ038-NYZ072-211800-
SOUTHERN NEW ENGLAND AND NY
  
CITY           SKY/WX    TMP DP  RH WIND       PRES   REMARKS
WORCESTER      FAIR      50  23  34 W15G22    30.24F                  
NANTUCKET      FAIR      50  24  36 NW13G20   30.29S                  
PROVIDENCE     FAIR      56  25  30 NW13G21   30.27F                  
HARTFORD       FAIR      56  21  25 W12G23    30.28F                  
ALBANY         FAIR      52  23  32 W8G23     30.33F                  
NEW YORK CITY  FAIR      55  25  31 NW14      30.35F                  
$$

ANZ081-ANZ082-ANZ150-NHZ014-MEZ023>029-211800-
COASTAL MARINE OBSERVATIONS
  
STATION/POSITION TIME  TEMP    WIND        PRES    WAVE
                       AIR SEA DIR/SP/G            HT/PER
                 (UTC) (F)     (DEG/KT/KT) (MB)    (FT/S)
MOUNT DESERT ROC 1700   42     280/ 13/ 15 1021.7S
MATINICUS ROCK   1700   45     300/  7/  7 1021.9F
ISLE OF SHOALS   1700   48     280/  5/  6 1023.2F
JEFFREYS LEDGE   1636      42                N/A     2/ 4
CASHES LEDGE BUO 1650   44 41              1023.2F   2/ 4
$$

.............KEY..............
   WCI - WIND CHILL
   TC  - TEMPERATURE IN CELSIUS
   VSB - VISIBILITY IN MILES
   HX  - HEAT INDEX
   FAIR- INDICATES FEW OR NO CLOUDS BELOW 12,000 FT, WITH NO 
         SIGNIFICANT WEATHER AND/OR OBSTRUCTIONS TO VISIBILITY.